Location: Dehesa de la Cepeda
(40.6574°N, 4.3013°W)
Time: 07:51:20
(UTC+00:00)

ISS - Visible Passes

Search period start: 18 September 2020 00:00
Search period end: 28 September 2020 00:00
Orbit: 419 x 420 km, 51.6° (Epoch: 18 September)

Date Brightness Start Highest point End Pass type
(mag) Time Alt. Az. Time Alt. Az. Time Alt. Az.
18 Sep -3.8 19:35:52 10° SW 19:39:14 83° NW 19:41:15 22° NE visible
18 Sep -0.2 21:13:59 10° WNW 21:14:14 11° WNW 21:14:14 11° WNW visible
19 Sep -3.6 18:48:34 10° SW 18:51:53 57° SE 18:55:11 10° ENE visible
19 Sep -1.7 20:26:05 10° W 20:28:54 24° NNW 20:29:08 24° NNW visible
20 Sep -2.1 19:38:16 10° W 19:41:21 33° NNW 19:43:52 14° NE visible
21 Sep -2.9 18:50:34 10° WSW 18:53:52 49° NNW 18:57:09 10° NE visible
21 Sep -1.1 20:29:10 10° NW 20:31:17 16° NNW 20:31:27 15° N visible
22 Sep -1.3 19:41:10 10° WNW 19:43:38 19° NNW 19:45:57 11° NNE visible
23 Sep -1.7 18:53:13 10° W 18:56:02 24° NNW 18:58:50 10° NNE visible
23 Sep -0.8 20:32:08 10° NNW 20:33:20 13° N 20:33:20 13° N visible
24 Sep -1.1 19:44:14 10° NW 19:46:03 14° N 19:47:42 11° NNE visible
25 Sep -1.2 18:56:13 10° NW 18:58:20 15° NNW 19:00:28 10° NNE visible
25 Sep -0.7 20:34:22 10° NNW 20:34:58 12° NNW 20:34:58 12° NNW visible
26 Sep -1.2 19:46:50 10° NNW 19:48:29 13° N 19:49:16 12° NNE visible
27 Sep -1.1 18:59:05 10° NNW 19:00:43 13° N 19:02:22 10° NNE visible
27 Sep -0.6 20:36:02 10° NNW 20:36:30 12° NNW 20:36:30 12° NNW visible
